Regional Weather Roundup
Issued by NWS

Home | Current Version | Previous Version | Graphics & Text | Print | Product List | Glossary On
Versions: 1 2 3 4 5 6 7 8 9 10 11 12 13 14 15 16 17 18 19 20 21 22 23 24 25 26 27 28 29 30 31 32 33 34 35 36 37 38 39 40 41 42 43 44 45 46 47 48 49 50
000
ASUS45 KSLC 200610
RWRUT

UTAH REGIONAL WEATHER ROUNDUP
NATIONAL WEATHER SERVICE SALT LAKE CITY UT
1200 AM MDT WED AUG 20 2014

UTZ001>011-023>025-200700-

NORTHERN UTAH

CITY           SKY/WX    TMP DP  RH WIND       PRES   REMARKS
HILL AFB       MOCLDY    64  52  63 E9        29.92S
LOGAN          MOCLDY    62  50  64 W6        29.91S
OGDEN          PTCLDY    63  53  70 S6        29.89F
PROVO AIRPORT  CLOUDY    63  55  77 E3        29.94S
SALT LAKE CITY CLOUDY    69  57  65 SE8       29.88F
VERNAL         LGT RAIN  61  59  93 CALM      29.99S
WENDOVER       CLOUDY    72  43  35 W12       29.86F
HEBER CITY     CLOUDY    59  54  82 W5        29.98S
WEST JORDAN    CLOUDY    70  61  73 SE9       29.91F

$$

UTZ012>022-026-027-200700-

SOUTHERN UTAH

CITY           SKY/WX    TMP DP  RH WIND       PRES   REMARKS
BRYCE CANYON   FOG       49  49 100 CALM      30.16S VSB 1/4
CEDAR CITY     CLOUDY    60  54  80 SW8       30.02S
MILFORD        CLOUDY    66  55  67 E5        29.99R
MOAB/CYNLANDS  MOCLDY    64  61  90 CALM      29.95S
PRICE          CLOUDY    62  57  83 E5        30.02R
ST GEORGE      CLOUDY    70  63  78 CALM      29.91S
KANAB            N/A    N/A N/A N/A NW6       30.06R

$$

REGIONAL REPORTS     COLORADO/ARIZONA

CITY           SKY/WX    TMP DP  RH WIND       PRES   REMARKS
CRAIG, CO      RAIN      58  53  84 E7        30.04S
GRAND JUNCTION CLOUDY    62  60  93 NE5       29.98R
RIFLE          CLOUDY    60  58  92 N3        30.02F
MONTROSE       CLOUDY    62  58  86 E3        30.05S
CORTEZ         CLOUDY    61  59  93 CALM      30.08R
PAGE, AZ       PTCLDY    69  60  73 CALM      29.98R
GRAND CANYON     N/A    N/A N/A N/A MISG        N/A
KINGMAN        CLEAR     67  56  67 SE18G24   29.92R
FLAGSTAFF      MOCLDY    52  50  93 CALM      30.18S

$$

REGIONAL REPORTS    NEVADA/IDAHO/WYOMING

CITY           SKY/WX    TMP DP  RH WIND       PRES   REMARKS
LAS VEGAS, NV  MOCLDY    82  53  36 E3        29.77S
ELY            CLOUDY    54  54 100 S6        30.08R
ELKO           CLOUDY    63  47  55 W7        29.94F
POCATELLO, ID  MOCLDY    60  56  86 E5        29.92F
BURLEY         MOCLDY    65  49  56 E13       29.87F
EVANSTON, WY   CLOUDY    53  49  86 CALM      30.06R
ROCK SPRINGS   CLOUDY    55  49  80 SW8       30.03R

$$


USA.gov is the U.S. government's official web portal to all federal, state and local government web resources and services.